Location: Newark
(52.5667°N, 8.8000°W)
Time: 13:56:39
(UTC+00:00)

N. Korean satellite - Pass Details

Date: 01 February 2020
Orbit: 456 x 505 km, 97.2° (Epoch: 29 February)

Event Time Altitude Azimuth Distance (km) Brightness Sun altitude
Rises 07:22:59 0° 5° (N) 2,560 10.1 -8.5°
Reaches altitude 10° 07:25:13 10° 354° (N) 1,684 9.1 -8.2°
Maximum altitude 07:28:23 29° 293° (WNW) 926 7.4 -7.8°
Drops below altitude 10° 07:31:34 10° 232° (SW) 1,695 9.0 -7.3°
Sets 07:33:49 0° 221° (SW) 2,580 10.0 -7.0°
